Find Starlink 3964

NORAD ID: 52536 Int'l Des: 2022-051 Owner: SPXS Country: US Constellation: starlink operational
LEOCIRCULAR

Live Position

Loading 3D Globe...

About Starlink 3964

Description loading...

Upcoming Passes

Passes for default location (London). Set your location on the main map for personalized predictions.

Altitude History

Loading altitude history...

Two-Line Element Set

1 52536U 22051D 26124.01686324 .00001041 00000-0 83448-4 0 9993
2 52536 53.2160 240.7448 0001183 89.1042 271.0086 15.08842790219792
Epoch: May 4, 2026 • Age: 14 hours

Current Status

Altitude 541.0 km
Velocity 7.59 km/s
Sub-Earth Point -2.31°S, 11.47°W
Launch Date May 13, 2022
Age 3.9 years
Type internet

Technical Details

Classification Payload
Mass 297.00 kg
Dry Mass 275.00 kg
Total Mass 297.00 kg
Length 0.20 m
Diameter 2.80 m
Span 9.00 m
Shape Box + pan
Manufacturer SPXS
Bus Type Starlink
Phase Status In Orbit
Owner/State SPXS/US

Most Searched